{"data":{"norad_id":53961,"epoch":"2026-05-25T01:24:33.034752Z","epoch_age_seconds":67063,"freshness":"FRESH","line1":"1 53961U 22123B   26145.05871568  .00000067  00000+0  00000+0 0  9993","line2":"2 53961   0.0265  29.4982 0001194  11.0489  92.2447  1.00271305  6981","mean_motion":1.00271305,"eccentricity":0.0001194,"inclination_deg":0.0265,"raan_deg":29.4982,"arg_perigee_deg":11.0489,"mean_anomaly_deg":92.2447,"bstar":0,"rev_number":698,"period_min":1436.1037786434,"perigee_km":35781.695038089,"apogee_km":35791.764008215,"semimajor_km":42164.866523152,"source":"CELESTRAK","updated_at":"2026-05-25T13:38:14.517415Z"}}